Regional Weather Roundup
Issued by NWS Cleveland, OH

Home | Current Version | Previous Version | Graphics & Text | Print | Product List | Glossary On
Versions: 1 2 3 4 5 6 7 8 9 10 11 12 13 14 15 16 17 18 19 20 21 22 23 24 25 26 27 28 29 30 31 32 33 34 35 36 37 38 39 40 41 42 43 44 45 46 47 48 49 50
000
ASUS41 KCLE 290902
RWRCLE
OHIO REGIONAL WEATHER ROUNDUP
NATIONAL WEATHER SERVICE CLEVELAND, OH
500 AM EDT FRI JUL 29 2016

NOTE: "FAIR" INDICATES FEW OR NO CLOUDS BELOW 12,000 FEET WITH NO
SIGNIFICANT WEATHER AND/OR OBSTRUCTIONS TO VISIBILITY.

OHZ001>008-015>018-024>027-034-035-043-044-291000-
   NORTHWEST OHIO

CITY           SKY/WX    TMP DP  RH WIND       PRES   REMARKS
DEFIANCE       CLOUDY    72  65  78 NE3       29.91F
FINDLAY        CLEAR     71  64  78 E5        29.90F
TOLEDO EXPRESS CLOUDY    70  61  73 NE6       29.91F
TOLEDO EXEC    CLOUDY    73  67  81 NE5       29.92F
LIMA           CLEAR     66  64  93 E3        29.92R
$$

OHZ009>014-019>023-028>033-038-089-291000-
   NORTHEAST OHIO

CITY           SKY/WX    TMP DP  RH WIND       PRES   REMARKS
CLE-HOPKINS    PTCLDY    67  63  87 CALM      29.93S
CLE-LAKEFRONT  CLEAR     72  67  84 S5        29.89S
CUY CO. ARPT   NOT AVBL
LORAIN-ELYRIA  CLEAR     62  60  93 CALM      29.92S
ASHTABULA      PTCLDY    64  64 100 CALM      29.92F
AKRON-CANTON   FOG       69  68  96 S3        29.93S VSB 3/4
WOOSTER        FOG       66  66 100 CALM      29.94R VSB 1/4
MANSFIELD      CLEAR     64  64 100 CALM      29.94R
YOUNGSTOWN     FOG       65  64  97 CALM      29.93S VSB 1/4
$$

OHZ042-051>053-060>062-070>072-077>081-291000-
  SOUTHWEST OHIO

CITY           SKY/WX    TMP DP  RH WIND       PRES   REMARKS
CINC-COVINGTON FOG       71  71 100 S3        29.92S VSB 1
CINC-LUNKEN    CLOUDY    74  74 100 SW5       29.91S
HAMILTON       CLEAR     68  66  93 CALM      29.92S FOG
DAYTON         PTCLDY    70  68  93 SW7       29.93R
WRIGHT-PAT AFB NOT AVBL
DAYTON GENERAL CLEAR     70  67  90 CALM      29.91S
WILMINGTON     FOG       71  71 100 SW6       29.92S VSB 1/4
$$

OHZ036-037-039>041-045>050-054>059-063>069-073>076-082>088-291000-
  CENTRAL AND SOUTHEAST OHIO

CITY           SKY/WX    TMP DP  RH WIND       PRES   REMARKS
COLUMBUS       PTCLDY    69  68  96 CALM      29.92R FOG
OSU AIRPORT    FOG       68  68 100 S3        29.92R VSB 1/4
BOLTON FIELD   MOCLDY    65  65 100 CALM      29.92S VSB 1/2
RICKENBACK AFB CLEAR     66  66 100 CALM      29.92R FOG
NEWARK         CLOUDY    70  70 100 CALM      29.92R FOG
MARION         PTCLDY    66  63  90 CALM      29.93R FOG
LANCASTER      CLEAR     66  65  96 CALM      29.92S
ZANESVILLE     CLOUDY    74  71  91 CALM      29.92S FOG
NEW PHILLY     CLOUDY    73  69  87 CALM      29.93S
$$




USA.gov is the U.S. government's official web portal to all federal, state and local government web resources and services.